Home   Weather   Montpelier   Past weeks
Flag for USA

Past Weather in Montpelier, Vermont, USA — Yesterday and Last 2 Weeks

Now
11 °F

Passing clouds.


Feels Like: 11 °F
Forecast: 23 / 8 °F
Wind: No wind

Location: Knapp State Airport

Current Time: Feb 17, 2019 at 2:57:36 am

Latest Report: Feb 17, 2019 at 2:16 am


Visibility: 10 mi

Pressure: 30.07 "Hg

Humidity: 81%

Dew Point: 6 °F

Location of MontpelierLocation

Past Weather in Montpelier — Graph

°F

Montpelier Temperature Yesterday

Maximum temperature yesterday: 28 °F (at 2:51 am)
Minimum temperature yesterday: 15 °F (at 11:51 pm)
Average temperature yesterday: 23 °F

High & Low Weather Summary for the Past Weeks

 TemperatureHumidityPressure
High52 °F (Feb 5, 10:51 am)100% (Feb 2, 6:19 pm)30.66 "Hg (Feb 2, 6:19 pm)
Low-12 °F (Feb 2, 5:51 am)38% (Feb 9, 3:51 pm)29.49 "Hg (Feb 13, 1:37 pm)
Average24 °F79%30.05 "Hg
* Reported Feb 2 2:51 am — Feb 17 2:00 am, Montpelier. Weather by CustomWeather, © 2019

Note: Actual official high and low records may vary slightly from our data, if they occured in-between our weather recording intervals... More about our weather records

Advertising

Montpelier Weather History for the Previous 24 Hours

Scroll right to see more
 ConditionsComfort  
Time TempWeatherWind HumidityBarometerVisibility
2:00 am
Sun, Feb 17
12 °FPassing clouds.3 mph77%30.06 "Hg10 mi
12:51 am14 °FOvercast.7 mph73%30.11 "Hg10 mi
11:51 pm
Sat, Feb 16
15 °FOvercast.10 mph74%30.08 "Hg10 mi
10:51 pm16 °FOvercast.12 mph71%30.06 "Hg10 mi
9:51 pm17 °FOvercast.9 mph68%30.04 "Hg10 mi
9:32 pm16 °FMostly cloudy.7 mph71%29.98 "Hg10 mi
8:51 pm17 °FMostly cloudy.5 mph68%30.05 "Hg10 mi
7:51 pm18 °FClear.9 mph68%30.02 "Hg10 mi
6:51 pm19 °FClear.14 mph65%30.01 "Hg10 mi
5:51 pm20 °FPassing clouds.9 mph68%29.99 "Hg10 mi
4:51 pm23 °FSunny.14 mph60%29.94 "Hg10 mi
3:51 pm24 °FScattered clouds.16 mph62%29.90 "Hg10 mi
2:51 pm27 °FOvercast.15 mph63%29.87 "Hg10 mi
1:58 pm26 °FOvercast.13 mph69%29.80 "Hg10 mi
12:51 pm28 °FMore clouds than sun.14 mph66%29.83 "Hg10 mi
11:56 am25 °FLight snow. Cloudy.9 mph81%29.79 "Hg3 mi
11:25 am25 °FLight snow. Mostly cloudy.7 mph81%29.79 "Hg5 mi
11:15 am25 °FLight snow. Ice fog.10 mph85%29.79 "Hg2 mi
11:04 am25 °FLight snow. Mostly cloudy.10 mph81%29.79 "Hg4 mi
10:51 am25 °FLight snow. More clouds than sun.9 mph81%29.83 "Hg6 mi
9:51 am26 °FLight snow. Mostly cloudy.10 mph81%29.82 "Hg6 mi
8:51 am25 °FLight snow. Overcast.10 mph81%29.82 "Hg8 mi
7:51 am24 °FOvercast.No wind77%29.80 "Hg10 mi
6:51 am25 °FOvercast.No wind72%29.78 "Hg10 mi
5:51 am25 °FPassing clouds.7 mph69%29.76 "Hg10 mi
4:51 am25 °FClear.6 mph72%29.75 "Hg10 mi
3:51 am26 °FPassing clouds.7 mph71%29.74 "Hg10 mi
2:51 am28 °FPassing clouds.5 mph69%29.74 "Hg10 mi
Weather by CustomWeather, © 2019

See weather overview